Погода в Белгород-Днестровском

Украина / Одесская область     46°11′11″N   30°19′59″E
темп.,
°C
ветер,
м/с
пор.,
м/с
влажн.,
%
обл.,
%
осадки,
мм/ч
давл.,
гПа
погр.,
м
5 марта, пт
пт523:00+7ююз687757 0.0 1013115
02:00+6юз458066 0.0 101269
05:00+5зсз237879 0.0 101225
08:00+5ссв567946 0.0 1011114
11:00+8всв347078 0.0 1012186
14:00+8юв227084 0.0 1011237
17:00+7юв4573100 0.0 101086
20:00+7ю457078 0.0 101252
6 марта, сб
сб623:00+8зсз8126970 0.0 1013200
02:00+5ссз9138284 0.0 1016339
05:00+3с91381100 0.0 1018614
08:00+1с91273100 0.0 1022740
11:00+3с71052100 0.0 1024671
14:00+4с7850100 0.0 1025717
17:00+3с684625 0.0 1026771
20:00+2ссв335513 0.0 102837
7 марта, вс
вс723:00+1зюз22560 0.0 103022
02:00+1з47600 0.0 1030178
05:000сз47630 0.0 1029301
08:000зсз45530 0.0 1029400
11:00+3з57490 0.0 1027597
14:00+5зюз68490 0.0 1024660
17:00+5зюз58500 0.0 1022578
20:00+4юз611560 0.0 1021207
8 марта, пн
пн823:00+2юз611700 0.0 1020242
02:00+2юз597429 0.0 1019175
05:00+1юз587943 0.0 1017178
08:00+1з347722 0.0 1018118
11:00+4в11630 0.0 1017293
14:00+4юв225743 0.0 1016429
17:00+5ююв346174 0.0 1014238
20:00+4ююв347570 0.0 101534
9 марта, вт
вт923:00+3юз23750 0.0 101526
02:00+3сз22760 0.0 101522
05:00+2с59740 0.0 1016187
08:00+1с710800 0.0 1018441
11:00+3с685613 0.0 1020462
14:00+4с67517 0.0 1019580
17:00+3с57490 0.0 1020616
20:00+2ссв610600 0.0 1022415